Regional Weather Roundup
Issued by NWS

Home | Current Version | Previous Version | Graphics & Text | Print | Product List | Glossary On
Versions: 1 2 3 4 5 6 7 8 9 10 11 12 13 14 15 16 17 18 19 20 21 22 23 24 25 26 27 28 29 30 31 32 33 34 35 36 37 38 39 40 41 42 43 44 45 46 47 48 49 50
000
ASUS43 KLOT 291212
RWRIL

ILLINOIS REGIONAL WEATHER ROUNDUP
NATIONAL WEATHER SERVICE CHICAGO/ROMEOVILLE IL
700 AM CDT FRI MAY 29 2015

NOTE: "FAIR" INDICATES FEW OR NO CLOUDS BELOW 12,000 FEET WITH NO
SIGNIFICANT WEATHER AND/OR OBSTRUCTIONS TO VISIBILITY.

* THESE STATIONS ARE NOT UNDER NWS QUALITY CONTROL. THEY ALSO MAY NOT
  REPORT WEATHER SUCH AS PRECIPITATION OR FOG.

ILZ001-002-007-009-015-016-024-291300-
NORTHWEST ILLINOIS

CITY           SKY/WX    TMP DP  RH WIND       PRES   REMARKS
MOLINE         MOSUNNY   70  64  81 SE5       29.97R
6HR MIN TEMP:  65; 6HR MAX TEMP:  70; 6HR PCP: TRACE;

STERLING*      CLOUDY    70  63  78 S3        30.00R
SAVANNA*       CLOUDY    66  61  84 CALM      29.99R
$$

ILZ003-004-008-010-011-017-018-291300-
NORTH CENTRAL ILLINOIS

CITY           SKY/WX    TMP DP  RH WIND       PRES   REMARKS
ROCKFORD       CLOUDY    68  61  78 S7        30.02R
6HR MIN TEMP:  65; 6HR MAX TEMP:  68;

FREEPORT*      CLOUDY    65  61  86 S6        30.01S
ROCHELLE*      PTSUNNY   67  63  86 SE9       30.02R
DE KALB*       PTSUNNY   65  60  84 S7        30.04R
PERU*          MOSUNNY   69  64  82 SE8       30.02R
$$

ILZ005-006-012>014-019>023-291300-
NORTHEAST ILLINOIS

CITY           SKY/WX    TMP DP  RH WIND       PRES   REMARKS
CHICAGO-OHARE  PTSUNNY   69  63  81 S5        30.02R
6HR MIN TEMP:  63; 6HR MAX TEMP:  69;

CHICAGO-MIDWAY CLOUDY    73  65  75 S9        30.03R
6HR MIN TEMP:  71; 6HR MAX TEMP:  73;

AURORA         PTSUNNY   68  62  81 S5        30.03R HAZE
6HR MIN TEMP:  64; 6HR MAX TEMP:  68;

LANSING*       CLOUDY    68  63  82 S8        30.04S
JOLIET*        PTSUNNY   71  66  85 S3        30.04R
WAUKEGAN       PTSUNNY   65  60  84 CALM      30.02S
6HR MIN TEMP:  58; 6HR MAX TEMP:  65;

DUPAGE AIRPORT PTSUNNY   68  63  84 S6        30.02S
6HR MIN TEMP:  63; 6HR MAX TEMP:  68;

KANKAKEE*      PTSUNNY   69  65  87 S8        30.05S
WHEELING       PTSUNNY   69  63  81 S6        30.04R
6HR MIN TEMP:  62; 6HR MAX TEMP:  69;

MORRIS*        PTSUNNY   69  64  84 S5        30.02R
ROMEOVILLE*    PTSUNNY   69  64  83 S9        30.04R
NORTHERLY ISL    N/A     64  60  87 S2          N/A
$$

LMZ740>746-291300-
SOUTHERN LAKE MICHIGAN

STATION/POSITION SKY/WX   TEMP    WIND        PRES    VSBY  WAVE
                          AIR SEA DIR/SP/G                  HT/PER
                          (F)     (DEG/KT/KT) (MB)    (MI)  (FT/S)
SOUTHERN BUOY              47 38  150/ 10/ 12 1017.5F         1
HARRISON CRIB              62     150/ 12/ 13   N/A
BURNHAM HARBOR             69     190/  7       N/A
CALUMET HARBOR             70     170/  8/  9   N/A
BURNS HARBOR               70     160/ 10/ 14 1017.9R
MICHIGAN CITY              69     130/ 10/ 13   N/A
MICHIGAN CITY 6N           64 55  170/ 10/ 12   N/A           1
ST. JOSEPH                 65 57  190/ 12/ 14   N/A           1
$$

ILZ025>027-034>036-040-047-049-050-058-095>099-291300-
WEST-CENTRAL ILLINOIS

CITY           SKY/WX    TMP DP  RH WIND       PRES   REMARKS
QUINCY         CLOUDY    68  65  90 S13       29.97R
GALESBURG*     MOSUNNY   67  64  90 SE6       29.98S
MACOMB*        CLOUDY    68  65  92 S9        30.00R
JACKSONVILLE*  CLOUDY    71  67  86 S9        30.01R
PITTSFIELD*    CLOUDY    71  66  84 S10       30.01R
$$

ILZ028>032-037-038-041>044-048-051>054-059>061-291300-
CENTRAL ILLINOIS

CITY           SKY/WX    TMP DP  RH WIND       PRES   REMARKS
PONTIAC        PTSUNNY   70  66  89 S7        30.04S
BLOOMINGTON    PTSUNNY   68  66  93 S9        30.05R
DECATUR        PTSUNNY   69  65  86 S7        30.04R
PEORIA         LGT RAIN  72  65  78 S6        30.01R
6HR MIN TEMP:  70; 6HR MAX TEMP:  73; 6HR PCP: TRACE;

LACON*         PTSUNNY   69  64  85 S5        30.00R
LINCOLN*       CLOUDY    69  65  88 S6        30.00F
SPRINGFIELD    CLOUDY    71  66  84 S10       30.02R
6HR MIN TEMP:  68; 6HR MAX TEMP:  71;

TAYLORVILLE    CLOUDY    66  64  94 S6        30.04R
$$

ILZ033-039-045-046-055>057-062-063-291300-
EAST-CENTRAL ILLINOIS

CITY           SKY/WX    TMP DP  RH WIND       PRES   REMARKS
CHAMPAIGN      CLOUDY    69  65  86 SE8       30.06R
DANVILLE*      CLOUDY    67  64  90 SE6       30.05S
RANTOUL*       CLOUDY    69  66  89 SE6       30.07R
PARIS*         MOSUNNY   68  65  91 SE9       30.08S
$$

ILZ079-100>102-291300-
SOUTHWEST ILLINOIS

CITY           SKY/WX    TMP DP  RH WIND       PRES   REMARKS
ALTON          CLOUDY    70  70 100 SE6       30.04R
BELLEVILLE     PTSUNNY   68  68 100 S3        30.03R
CAHOKIA*       PTSUNNY   70  65  84 SE6       30.03R
SPARTA*        PTSUNNY   68  65  92 CALM      30.06R
$$

ILZ064>066-069>071-074>076-080>082-084>086-088>090-092>094-291300-
SOUTH-CENTRAL ILLINOIS

CITY           SKY/WX    TMP DP  RH WIND       PRES   REMARKS
CARBONDALE     PTSUNNY   68  65  90 S3        30.06R
6HR MIN TEMP:  63; 6HR MAX TEMP:  69;

CAIRO*         PTSUNNY   69  67  94 S8        30.08R
EFFINGHAM*     MOSUNNY   69  64  84 SE3       30.08R
MARION         CLOUDY    70  66  88 MISG      30.08R
MT. VERNON     MOSUNNY   66  63  88 SE5       30.08R
CENTRALIA*     PTSUNNY   71  65  79 SE5       30.06R
SALEM*         MOSUNNY   69  65  86 SE5       30.07R
METROPOLIS*    MOSUNNY   69  69 100 SE3       30.08R
$$

ILZ067-068-072-073-078-083-087-091-291300-
SOUTHEAST ILLINOIS

CITY           SKY/WX    TMP DP  RH WIND       PRES   REMARKS
LAWRENCEVILLE  SUNNY     70  66  87 SE3       30.08R
FLORA*         SUNNY     68  66  91 SE5       30.07R
FAIRFIELD*     MOSUNNY   71  66  86 S7        30.06R
HARRISBURG*    MOSUNNY   68  68 100 CALM      30.09R
ROBINSON*      SUNNY     69  65  89 SE5       30.09R
CARMI*         MOSUNNY   70  63  78 S5        30.08R
$$

ABBREVIATIONS USED IN REMARKS
   TC - TEMPERATURE IN CELSIUS
  WCI - WIND CHILL INDEX
   HX - HEAT INDEX
  VSB - VISIBILITY
$$




USA.gov is the U.S. government's official web portal to all federal, state and local government web resources and services.